Meteo pe oră la Bolshie Klyuchi

Astăzi, 18 Mai, Marţi

Timp Temperatura Precipitaţii Vânt Presiune Umiditate
00:00 +13°C° 0 mm 1 m/s 743 mmHg 59%
01:00 +12°C° 0 mm 1 m/s 743 mmHg 60%
02:00 +12°C° 0 mm 1 m/s 744 mmHg 62%
03:00 +10°C° 0 mm 2 m/s 744 mmHg 62%
04:00 +12°C° 0 mm 1 m/s 744 mmHg 62%
05:00 +12°C° 0 mm 1 m/s 744 mmHg 61%
06:00 +13°C° 0 mm 1 m/s 744 mmHg 61%
07:00 +16°C° 0 mm 1 m/s 744 mmHg 52%
08:00 +19°C° 0 mm 2 m/s 744 mmHg 43%
09:00 +23°C° 0 mm 2 m/s 744 mmHg 34%
10:00 +25°C° 0 mm 2 m/s 744 mmHg 31%
11:00 +26°C° 0 mm 2 m/s 744 mmHg 29%
12:00 +28°C° 0 mm 2 m/s 744 mmHg 26%
13:00 +26°C° 0 mm 1 m/s 742 mmHg 37%
14:00 +28°C° 0 mm 2 m/s 743 mmHg 31%
15:00 +29°C° 0 mm 3 m/s 743 mmHg 24%
16:00 +28°C° 0 mm 2 m/s 743 mmHg 31%
17:00 +26°C° 0 mm 1 m/s 743 mmHg 38%
18:00 +25°C° 0 mm 1 m/s 742 mmHg 45%
19:00 +23°C° 0 mm 1 m/s 743 mmHg 49%
20:00 +20°C° 0 mm 1 m/s 743 mmHg 54%
21:00 +18°C° 0 mm 1 m/s 743 mmHg 58%
22:00 +16°C° 0 mm 1 m/s 744 mmHg 60%
23:00 +15°C° 0 mm 1 m/s 744 mmHg 62%

Mâine, 19 Mai, Miercuri

Timp Temperatura Precipitaţii Vânt Presiune Umiditate
00:00 +14°C° 0 mm 1 m/s 744 mmHg 65%
01:00 +14°C° 0 mm 2 m/s 744 mmHg 66%
02:00 +13°C° 0 mm 2 m/s 744 mmHg 68%
03:00 +12°C° 0 mm 2 m/s 744 mmHg 70%
04:00 +13°C° 0 mm 2 m/s 744 mmHg 67%
05:00 +13°C° 0 mm 2 m/s 744 mmHg 65%
06:00 +14°C° 0 mm 1 m/s 744 mmHg 63%
07:00 +17°C° 0 mm 2 m/s 744 mmHg 53%
08:00 +20°C° 0 mm 2 m/s 743 mmHg 43%
09:00 +24°C° 0 mm 3 m/s 743 mmHg 34%
10:00 +25°C° 0 mm 3 m/s 743 mmHg 32%
11:00 +27°C° 0 mm 3 m/s 743 mmHg 31%
12:00 +28°C° 0 mm 3 m/s 743 mmHg 30%
13:00 +29°C° 0 mm 3 m/s 743 mmHg 31%
14:00 +29°C° 0 mm 3 m/s 742 mmHg 32%
15:00 +29°C° 0 mm 3 m/s 742 mmHg 33%
16:00 +28°C° 0 mm 3 m/s 742 mmHg 40%
17:00 +27°C° 0 mm 2 m/s 742 mmHg 47%
18:00 +26°C° 0 mm 1 m/s 742 mmHg 53%
19:00 +23°C° 0 mm 1 m/s 743 mmHg 62%
20:00 +21°C° 0 mm 1 m/s 744 mmHg 70%
21:00 +18°C° 0 mm 1 m/s 744 mmHg 78%
22:00 +18°C° 0 mm 1 m/s 744 mmHg 79%
23:00 +16°C° 0 mm 1 m/s 744 mmHg 80%

Poimâine, 20 Mai, Joi

Timp Temperatura Precipitaţii Vânt Presiune Umiditate
00:00 +15°C° 0 mm 1 m/s 745 mmHg 81%
01:00 +15°C° 0 mm 1 m/s 745 mmHg 81%
02:00 +14°C° 0 mm 1 m/s 745 mmHg 80%
03:00 +14°C° 0 mm 1 m/s 745 mmHg 80%
04:00 +15°C° 0 mm 1 m/s 745 mmHg 78%
05:00 +15°C° 0 mm 1 m/s 745 mmHg 75%
06:00 +16°C° 0 mm 1 m/s 745 mmHg 73%
07:00 +19°C° 0 mm 2 m/s 745 mmHg 62%
08:00 +23°C° 0 mm 2 m/s 745 mmHg 52%
09:00 +26°C° 0 mm 2 m/s 745 mmHg 42%
10:00 +28°C° 0 mm 3 m/s 745 mmHg 38%
11:00 +30°C° 0 mm 3 m/s 744 mmHg 34%
12:00 +32°C° 0 mm 4 m/s 744 mmHg 29%
13:00 +33°C° 0 mm 4 m/s 744 mmHg 29%
14:00 +33°C° 0 mm 5 m/s 744 mmHg 29%
15:00 +33°C° 0 mm 5 m/s 744 mmHg 29%
16:00 +32°C° 0 mm 4 m/s 744 mmHg 34%
17:00 +29°C° 0 mm 3 m/s 744 mmHg 39%
18:00 +28°C° 0 mm 2 m/s 743 mmHg 44%
19:00 +25°C° 0.2 mm 2 m/s 744 mmHg 55%
20:00 +21°C° 0.2 mm 2 m/s 745 mmHg 65%
21:00 +19°C° 0.2 mm 1 m/s 745 mmHg 75%
22:00 +18°C° 0 mm 1 m/s 745 mmHg 76%
23:00 +18°C° 0 mm 1 m/s 745 mmHg 77%

21 Mai, Vineri

Timp Temperatura Precipitaţii Vânt Presiune Umiditate
00:00 +16°C° 0 mm 1 m/s 745 mmHg 78%
01:00 +16°C° 0 mm 1 m/s 745 mmHg 77%
02:00 +15°C° 0 mm 1 m/s 745 mmHg 76%
03:00 +15°C° 0 mm 1 m/s 745 mmHg 76%
04:00 +16°C° 0 mm 1 m/s 745 mmHg 73%
05:00 +16°C° 0 mm 1 m/s 744 mmHg 71%
06:00 +16°C° 0 mm 1 m/s 744 mmHg 69%
07:00 +20°C° 0 mm 1 m/s 744 mmHg 58%
08:00 +23°C° 0 mm 1 m/s 744 mmHg 48%
09:00 +25°C° 0 mm 1 m/s 744 mmHg 38%
10:00 +26°C° 0 mm 1 m/s 743 mmHg 35%
11:00 +28°C° 0 mm 1 m/s 743 mmHg 32%
12:00 +29°C° 0 mm 1 m/s 743 mmHg 29%
13:00 +29°C° 0 mm 2 m/s 742 mmHg 30%
14:00 +29°C° 0 mm 2 m/s 742 mmHg 32%
15:00 +29°C° 0 mm 2 m/s 741 mmHg 34%
16:00 +26°C° 0.3 mm 2 m/s 741 mmHg 47%
17:00 +24°C° 0.3 mm 3 m/s 742 mmHg 60%
18:00 +21°C° 0.3 mm 3 m/s 742 mmHg 73%
19:00 +19°C° 0.2 mm 2 m/s 742 mmHg 79%
20:00 +19°C° 0.2 mm 1 m/s 742 mmHg 85%
21:00 +18°C° 0.2 mm 1 m/s 743 mmHg 91%
22:00 +16°C° 0.1 mm 1 m/s 742 mmHg 91%
23:00 +16°C° 0.1 mm 1 m/s 742 mmHg 91%

22 Mai, Sâmbătă

Timp Temperatura Precipitaţii Vânt Presiune Umiditate
00:00 +16°C° 0.1 mm 1 m/s 742 mmHg 92%
01:00 +16°C° 0.4 mm 1 m/s 742 mmHg 92%
02:00 +16°C° 0.4 mm 1 m/s 742 mmHg 93%
03:00 +15°C° 0.4 mm 1 m/s 742 mmHg 94%
04:00 +16°C° 0 mm 1 m/s 742 mmHg 92%
05:00 +16°C° 0 mm 1 m/s 742 mmHg 91%
06:00 +18°C° 0 mm 1 m/s 742 mmHg 89%
07:00 +19°C° 0 mm 1 m/s 742 mmHg 79%
08:00 +21°C° 0 mm 1 m/s 743 mmHg 69%
09:00 +22°C° 0 mm 1 m/s 743 mmHg 59%
10:00 +24°C° 0 mm 1 m/s 743 mmHg 52%
11:00 +25°C° 0 mm 1 m/s 743 mmHg 44%
12:00 +27°C° 0 mm 2 m/s 743 mmHg 37%
13:00 +27°C° 0 mm 2 m/s 743 mmHg 35%
14:00 +28°C° 0 mm 1 m/s 742 mmHg 34%
15:00 +28°C° 0 mm 1 m/s 742 mmHg 33%
16:00 +27°C° 0 mm 1 m/s 742 mmHg 41%
17:00 +26°C° 0 mm 1 m/s 742 mmHg 49%
18:00 +25°C° 0 mm 1 m/s 743 mmHg 56%
19:00 +23°C° 0 mm 1 m/s 743 mmHg 58%
20:00 +21°C° 0 mm 1 m/s 744 mmHg 60%
21:00 +19°C° 0 mm 1 m/s 745 mmHg 62%
22:00 +18°C° 0 mm 1 m/s 745 mmHg 67%
23:00 +15°C° 0 mm 1 m/s 745 mmHg 70%

23 Mai, Duminică

Timp Temperatura Precipitaţii Vânt Presiune Umiditate
00:00 +14°C° 0 mm 1 m/s 745 mmHg 74%
01:00 +14°C° 0 mm 1 m/s 746 mmHg 76%
02:00 +13°C° 0 mm 1 m/s 746 mmHg 78%
03:00 +13°C° 0 mm 1 m/s 746 mmHg 80%
04:00 +13°C° 0 mm 1 m/s 746 mmHg 77%
05:00 +14°C° 0 mm 1 m/s 747 mmHg 75%
06:00 +15°C° 0 mm 1 m/s 747 mmHg 73%
07:00 +17°C° 0 mm 2 m/s 747 mmHg 65%
08:00 +19°C° 0 mm 2 m/s 746 mmHg 56%
09:00 +21°C° 0 mm 2 m/s 746 mmHg 48%
10:00 +24°C° 0 mm 3 m/s 746 mmHg 43%
11:00 +25°C° 0 mm 3 m/s 745 mmHg 39%
12:00 +27°C° 0 mm 4 m/s 745 mmHg 35%
13:00 +27°C° 0 mm 4 m/s 745 mmHg 35%
14:00 +27°C° 0 mm 4 m/s 744 mmHg 35%
15:00 +27°C° 0 mm 5 m/s 744 mmHg 35%
16:00 +25°C° 0 mm 4 m/s 745 mmHg 42%
17:00 +22°C° 0 mm 4 m/s 745 mmHg 48%
18:00 +21°C° 0 mm 4 m/s 745 mmHg 55%
19:00 +19°C° 0 mm 3 m/s 745 mmHg 60%
20:00 +17°C° 0 mm 2 m/s 746 mmHg 65%
21:00 +16°C° 0 mm 2 m/s 746 mmHg 70%
22:00 +15°C° 0 mm 1 m/s 746 mmHg 72%
23:00 +15°C° 0 mm 1 m/s 746 mmHg 75%
Arată mai mult

Formular de consimțământ

Meteoprog și furnizorii noștri de servicii pot stoca și accesa date personale, precum cookies, identificatori de dispozitiv sau alte tehnologii similare pe dispozitivul dumneavoastră și procesa astfel de date pentru a personaliza conținutul și reclamele, dar și pentru a oferi caracteristici de social media și pentru a analiza traficul.

  • Stocarea și/sau accesarea informațiilor pe dispozitivul dumneavoastră

    Cookies, identificatori de dispozitiv sau alte informații pot fi stocate sau accesate pe dispozitiv în scopurile indicate mai sus.

  • Reclame și conținut personalizat, evaluarea reclamelor și a conținutului, informații despre audiențe și dezvoltarea produselor

    Reclamele și conținutul pot fi personalizate pe baza unui profil. Pot fi adăugate date suplimentare pentru a personaliza mai bine reclamele și conținutul. Performanța reclamelor și conținutului poate fi măsurată. Pot fi obținute informații despre utilizatorii care au văzut reclamele și conținutul. Aceste date pot fi utilizate pentru a dezvolta sau îmbunătăți experiența utilizatorilor, sistemele și software-ul.

Dând clic pe ‘Sunt de acord’, permiteți utilizarea cookie-urilor menționate, a identificatorilor de dispozitiv, balizelor web sau altor tehnologii similare. Setările pot fi modificate din browser-ul dispozitivului dumneavoastră.

În anumite scopuri, interesele legitime pot prima asupra consimțământului. Puteți citi mai multe informații în acest sens în Politica privind Confidențialitatea Datelor și Cookie.